| time (UTC) | temp F | wind direction | speed knots | gust knots | rain 1hr in | rain 24hr in | rain mn in | humidity % | barometer mb |
| 20260510105008 | 68 | 172 | 0.9 | 1.7 | 0.00 | 0.00 | 0.00 | 87 | 1013.3 |
| 20260510104526 | 68 | 257 | 0.0 | 2.6 | 0.00 | 0.00 | 0.00 | 86 | 1013.3 |
| 20260510104003 | 68 | 17 | 0.9 | 2.6 | 0.00 | 0.00 | 0.00 | 86 | 1013.2 |
| 20260510103507 | 68 | 267 | 0.0 | 2.6 | 0.00 | 0.00 | 0.00 | 86 | 1013.2 |
| 20260510103007 | 68 | 6 | 0.9 | 3.5 | 0.00 | 0.00 | 0.00 | 86 | 1013.2 |
| 20260510102503 | 68 | 221 | 0.9 | 3.5 | 0.00 | 0.00 | 0.00 | 86 | 1013.2 |
| 20260510102007 | 68 | 53 | 0.9 | 1.7 | 0.00 | 0.00 | 0.00 | 86 | 1013.2 |
| 20260510101513 | 68 | 328 | 0.9 | 2.6 | 0.00 | 0.00 | 0.00 | 86 | 1013.2 |
| 20260510101012 | 68 | 64 | 0.0 | 2.6 | 0.00 | 0.00 | 0.00 | 85 | 1013.2 |
| 20260510100507 | 68 | 167 | 0.9 | 2.6 | 0.00 | 0.00 | 0.00 | 85 | 1013.3 |
| 20260510100016 | 69 | 105 | 0.9 | 3.5 | 0.00 | 0.00 | 0.00 | 84 | 1013.3 |
| 20260510095508 | 69 | 153 | 0.9 | 4.3 | 0.00 | 0.00 | 0.00 | 84 | 1013.3 |
| 20260510095007 | 69 | 159 | 0.9 | 4.3 | 0.00 | 0.00 | 0.00 | 85 | 1013.3 |
| 20260510094523 | 69 | 220 | 0.9 | 4.3 | 0.00 | 0.00 | 0.00 | 85 | 1013.3 |
| 20260510094010 | 69 | 215 | 0.9 | 4.3 | 0.00 | 0.00 | 0.00 | 85 | 1013.3 |
| 20260510093515 | 68 | 187 | 0.0 | 3.5 | 0.00 | 0.00 | 0.00 | 85 | 1013.3 |
| 20260510093024 | 68 | 216 | 0.0 | 3.5 | 0.00 | 0.00 | 0.00 | 85 | 1013.3 |
| 20260510092504 | 68 | 221 | 0.9 | 1.7 | 0.00 | 0.00 | 0.00 | 85 | 1013.3 |
| 20260510092004 | 68 | 252 | 0.0 | 1.7 | 0.00 | 0.00 | 0.00 | 85 | 1013.3 |
| 20260510091507 | 69 | 113 | 0.0 | 1.7 | 0.00 | 0.00 | 0.00 | 85 | 1013.2 |
| 20260510091004 | 69 | 105 | 0.0 | 4.3 | 0.00 | 0.00 | 0.00 | 84 | 1013.2 |
| 20260510090504 | 69 | 219 | 0.9 | 4.3 | 0.00 | 0.00 | 0.00 | 84 | 1013.2 |
| 20260510090010 | 69 | 79 | 0.9 | 4.3 | 0.00 | 0.00 | 0.00 | 84 | 1013.2 |
| 20260510085508 | 69 | 220 | 0.9 | 4.3 | 0.00 | 0.00 | 0.00 | 84 | 1013.2 |
| 20260510085005 | 69 | 118 | 0.0 | 3.5 | 0.00 | 0.00 | 0.00 | 84 | 1013.1 |
| 20260510084540 | 69 | 358 | 0.9 | 3.5 | 0.00 | 0.00 | 0.00 | 84 | 1013.1 |
| 20260510084006 | 69 | 52 | 0.9 | 3.5 | 0.00 | 0.00 | 0.00 | 84 | 1013.2 |
| 20260510083506 | 69 | 65 | 0.0 | 1.7 | 0.00 | 0.00 | 0.00 | 84 | 1013.1 |
| 20260510083021 | 69 | 101 | 0.0 | 0.9 | 0.00 | 0.00 | 0.00 | 84 | 1013.2 |
| 20260510082506 | 69 | 347 | 0.0 | 0.9 | 0.00 | 0.00 | 0.00 | 84 | 1013.2 |
| 20260510082009 | 69 | 114 | 0.0 | 0.9 | 0.00 | 0.00 | 0.00 | 83 | 1013.2 |
| 20260510081532 | 69 | 72 | 0.0 | 0.9 | 0.00 | 0.00 | 0.00 | 83 | 1013.2 |
| 20260510081003 | 70 | 113 | 0.0 | 2.6 | 0.00 | 0.00 | 0.00 | 82 | 1013.2 |
| 20260510080502 | 70 | 359 | 0.0 | 3.5 | 0.00 | 0.00 | 0.00 | 82 | 1013.2 |
| 20260510080009 | 70 | 257 | 0.9 | 3.5 | 0.00 | 0.00 | 0.00 | 83 | 1013.2 |
| 20260510075504 | 70 | 167 | 0.9 | 1.7 | 0.00 | 0.00 | 0.00 | 83 | 1013.2 |
| 20260510075007 | 70 | 28 | 0.0 | 1.7 | 0.00 | 0.00 | 0.00 | 83 | 1013.2 |
| 20260510074514 | 70 | 161 | 0.0 | 0.9 | 0.00 | 0.00 | 0.00 | 83 | 1013.2 |
| 20260510074004 | 70 | 120 | 0.0 | 1.7 | 0.00 | 0.00 | 0.00 | 83 | 1013.2 |
| 20260510073505 | 70 | 354 | 0.0 | 1.7 | 0.00 | 0.00 | 0.00 | 82 | 1013.2 |
| 20260510073025 | 70 | 49 | 0.0 | 0.9 | 0.00 | 0.00 | 0.00 | 82 | 1013.3 |
| 20260510072506 | 70 | 217 | 0.0 | 1.7 | 0.00 | 0.00 | 0.00 | 82 | 1013.3 |
| 20260510072007 | 71 | 206 | 0.0 | 3.5 | 0.00 | 0.00 | 0.00 | 81 | 1013.2 |
| 20260510071526 | 71 | 339 | 0.9 | 3.5 | 0.00 | 0.00 | 0.00 | 81 | 1013.2 |
| 20260510071006 | 71 | 92 | 0.9 | 4.3 | 0.00 | 0.00 | 0.00 | 81 | 1013.2 |
| 20260510070510 | 71 | 231 | 0.9 | 4.3 | 0.00 | 0.00 | 0.00 | 81 | 1013.2 |
| 20260510070032 | 71 | 125 | 0.9 | 3.5 | 0.00 | 0.00 | 0.00 | 81 | 1013.3 |
| 20260510065507 | 71 | 227 | 0.0 | 3.5 | 0.00 | 0.00 | 0.00 | 81 | 1013.3 |
| 20260510065008 | 71 | 186 | 0.9 | 3.5 | 0.00 | 0.00 | 0.00 | 80 | 1013.2 |
| 20260510064511 | 71 | 238 | 0.0 | 3.5 | 0.00 | 0.00 | 0.00 | 80 | 1013.2 |
| 20260510064003 | 71 | 240 | 1.7 | 3.5 | 0.00 | 0.00 | 0.00 | 80 | 1013.3 |
| 20260510063506 | 71 | 107 | 0.9 | 3.5 | 0.00 | 0.00 | 0.00 | 80 | 1013.4 |
| 20260510063022 | 71 | 145 | 0.9 | 3.5 | 0.00 | 0.00 | 0.00 | 80 | 1013.4 |
| 20260510062506 | 71 | 158 | 0.9 | 2.6 | 0.00 | 0.00 | 0.00 | 80 | 1013.4 |
| 20260510062007 | 71 | 144 | 0.9 | 1.7 | 0.00 | 0.00 | 0.00 | 80 | 1013.4 |
| 20260510061523 | 71 | 264 | 0.9 | 1.7 | 0.00 | 0.00 | 0.00 | 80 | 1013.5 |
| 20260510061006 | 71 | 129 | 0.0 | 1.7 | 0.00 | 0.00 | 0.00 | 80 | 1013.6 |
| 20260510060508 | 71 | 136 | 0.0 | 1.7 | 0.00 | 0.00 | 0.00 | 80 | 1013.6 |
| 20260510060036 | 71 | 102 | 0.0 | 1.7 | 0.00 | 0.00 | 0.00 | 80 | 1013.6 |
| 20260510055510 | 70 | 122 | 0.0 | 0.9 | 0.00 | 0.00 | 0.00 | 80 | 1013.6 |
| 20260510055013 | 70 | 121 | 0.0 | 0.9 | 0.00 | 0.00 | 0.00 | 80 | 1013.5 |
| 20260510054526 | 70 | 141 | 0.0 | 0.9 | 0.00 | 0.00 | 0.00 | 80 | 1013.5 |
| 20260510054004 | 70 | 146 | 0.0 | 0.9 | 0.00 | 0.00 | 0.00 | 79 | 1013.4 |
| 20260510053505 | 71 | 146 | 0.0 | 0.9 | 0.00 | 0.00 | 0.00 | 79 | 1013.4 |
| 20260510053011 | 71 | 146 | 0.0 | 0.9 | 0.00 | 0.00 | 0.00 | 79 | 1013.3 |
| 20260510052505 | 71 | 147 | 0.0 | 0.0 | 0.00 | 0.00 | 0.00 | 78 | 1013.3 |
| 20260510052007 | 71 | 147 | 0.0 | 0.0 | 0.00 | 0.00 | 0.00 | 78 | 1013.3 |
| 20260510051520 | 71 | 147 | 0.0 | 0.0 | 0.00 | 0.00 | 0.00 | 78 | 1013.3 |
| 20260510051008 | 71 | 147 | 0.0 | 0.0 | 0.00 | 0.00 | 0.00 | 78 | 1013.2 |
| 20260510050508 | 72 | 146 | 0.0 | 0.0 | 0.00 | 0.00 | 0.00 | 77 | 1013.2 |
| 20260510050023 | 72 | 147 | 0.0 | 0.0 | 0.00 | 0.00 | 0.00 | 77 | 1013.2 |
| 20260510045507 | 72 | 146 | 0.0 | 0.0 | 0.00 | 0.00 | 0.00 | 77 | 1013.2 |
| 20260510045012 | 72 | 146 | 0.0 | 0.0 | 0.00 | 0.00 | 0.00 | 76 | 1013.2 |
| 20260510044527 | 72 | 147 | 0.0 | 0.0 | 0.00 | 0.00 | 0.00 | 76 | 1013.1 |
| 20260510044010 | 73 | 166 | 0.0 | 0.9 | 0.00 | 0.00 | 0.00 | 76 | 1013.1 |
| 20260510043510 | 73 | 166 | 0.0 | 0.9 | 0.00 | 0.00 | 0.00 | 75 | 1013.2 |
| 20260510043028 | 73 | 119 | 0.0 | 1.7 | 0.00 | 0.00 | 0.00 | 75 | 1013.1 |
| 20260510042505 | 73 | 272 | 0.0 | 1.7 | 0.00 | 0.00 | 0.00 | 75 | 1013.0 |
| 20260510042006 | 73 | 140 | 0.0 | 1.7 | 0.00 | 0.00 | 0.00 | 75 | 1013.0 |
| 20260510041510 | 73 | 295 | 0.0 | 0.9 | 0.00 | 0.00 | 0.00 | 75 | 1012.9 |
| 20260510041003 | 73 | 268 | 0.0 | 0.9 | 0.00 | 0.00 | 0.00 | 75 | 1013.0 |
| 20260510040503 | 73 | 130 | 0.0 | 0.9 | 0.00 | 0.00 | 0.00 | 74 | 1013.0 |
| 20260510040012 | 73 | 143 | 0.0 | 0.9 | 0.00 | 0.00 | 0.00 | 74 | 1013.0 |
| 20260510035503 | 73 | 150 | 0.0 | 0.9 | 0.00 | 0.00 | 0.00 | 73 | 1012.9 |
| 20260510035005 | 73 | 148 | 0.0 | 0.9 | 0.00 | 0.00 | 0.00 | 73 | 1012.9 |
| 20260510034512 | 74 | 146 | 0.0 | 1.7 | 0.00 | 0.00 | 0.00 | 73 | 1013.0 |
| 20260510034005 | 74 | 139 | 0.0 | 1.7 | 0.00 | 0.00 | 0.00 | 72 | 1013.0 |
| 20260510033507 | 74 | 103 | 0.0 | 1.7 | 0.00 | 0.00 | 0.00 | 72 | 1012.9 |
| 20260510033007 | 74 | 165 | 0.0 | 1.7 | 0.00 | 0.00 | 0.00 | 71 | 1012.9 |
| 20260510032504 | 75 | 117 | 0.0 | 4.3 | 0.00 | 0.00 | 0.00 | 71 | 1012.9 |
| 20260510032007 | 75 | 116 | 0.9 | 6.1 | 0.00 | 0.00 | 0.00 | 70 | 1012.9 |
| 20260510031510 | 75 | 129 | 1.7 | 6.1 | 0.00 | 0.00 | 0.00 | 70 | 1012.8 |
| 20260510031004 | 75 | 123 | 0.9 | 3.5 | 0.00 | 0.00 | 0.00 | 70 | 1012.7 |
| 20260510030502 | 75 | 196 | 0.9 | 3.5 | 0.00 | 0.00 | 0.00 | 69 | 1012.7 |
| 20260510030011 | 76 | 156 | 0.9 | 7.0 | 0.00 | 0.00 | 0.00 | 69 | 1012.6 |
| 20260510025503 | 76 | 159 | 0.9 | 7.0 | 0.00 | 0.00 | 0.00 | 68 | 1012.5 |
| 20260510025003 | 76 | 150 | 0.9 | 2.6 | 0.00 | 0.00 | 0.00 | 68 | 1012.5 |
| 20260510024510 | 76 | 159 | 0.9 | 2.6 | 0.00 | 0.00 | 0.00 | 68 | 1012.5 |
| 20260510024003 | 76 | 114 | 0.9 | 2.6 | 0.00 | 0.00 | 0.00 | 68 | 1012.3 |
| 20260510023502 | 77 | 146 | 0.0 | 1.7 | 0.00 | 0.00 | 0.00 | 68 | 1012.2 |
| 20260510023013 | 77 | 148 | 0.9 | 1.7 | 0.00 | 0.00 | 0.00 | 67 | 1012.1 |
| 20260510022504 | 77 | 107 | 0.0 | 2.6 | 0.00 | 0.00 | 0.00 | 67 | 1012.1 |
| 20260510022002 | 77 | 129 | 0.0 | 3.5 | 0.00 | 0.00 | 0.00 | 67 | 1012.1 |
| 20260510021514 | 78 | 148 | 0.9 | 3.5 | 0.00 | 0.00 | 0.00 | 67 | 1012.0 |
| 20260510021001 | 78 | 110 | 0.0 | 1.7 | 0.00 | 0.00 | 0.00 | 67 | 1011.9 |
| 20260510020505 | 78 | 172 | 0.0 | 1.7 | 0.00 | 0.00 | 0.00 | 67 | 1011.8 |
| 20260510020014 | 78 | 127 | 0.0 | 2.6 | 0.00 | 0.00 | 0.00 | 67 | 1011.7 |
| 20260510015507 | 79 | 129 | 0.9 | 2.6 | 0.00 | 0.00 | 0.00 | 67 | 1011.6 |
| 20260510015002 | 79 | 167 | 0.9 | 1.7 | 0.00 | 0.00 | 0.00 | 66 | 1011.5 |
| 20260510014514 | 79 | 124 | 0.9 | 3.5 | 0.00 | 0.00 | 0.00 | 65 | 1011.4 |
| 20260510014003 | 80 | 114 | 0.9 | 5.2 | 0.00 | 0.00 | 0.00 | 64 | 1011.3 |
| 20260510013503 | 80 | 139 | 0.9 | 6.1 | 0.00 | 0.00 | 0.00 | 63 | 1011.2 |
| 20260510013014 | 81 | 102 | 3.5 | 7.8 | 0.00 | 0.00 | 0.00 | 62 | 1011.1 |
| 20260510012504 | 81 | 94 | 3.5 | 7.8 | 0.00 | 0.00 | 0.00 | 61 | 1011.0 |
| 20260510012004 | 82 | 96 | 2.6 | 6.1 | 0.00 | 0.00 | 0.00 | 58 | 1011.0 |
| 20260510011515 | 83 | 113 | 1.7 | 4.3 | 0.00 | 0.00 | 0.00 | 53 | 1010.9 |
| 20260510011004 | 83 | 115 | 0.0 | 0.0 | 0.00 | 0.00 | 0.00 | 48 | 1010.8 |
| 20260510010504 | 83 | 166 | 0.0 | 0.0 | 0.00 | 0.00 | 0.00 | 47 | 1010.7 |
| 20260510010011 | 84 | 167 | 0.0 | 0.0 | 0.00 | 0.00 | 0.00 | 46 | 1010.7 |
| 20260510005507 | 84 | 167 | 0.0 | 0.0 | 0.00 | 0.00 | 0.00 | 45 | 1010.7 |
| 20260510005009 | 84 | 167 | 0.0 | 0.0 | 0.00 | 0.00 | 0.00 | 45 | 1010.7 |
| 20260510004513 | 85 | 167 | 0.0 | 1.7 | 0.00 | 0.00 | 0.00 | 45 | 1010.5 |
| 20260510004004 | 85 | 120 | 0.0 | 1.7 | 0.00 | 0.00 | 0.00 | 45 | 1010.5 |
| 20260510003503 | 86 | 146 | 0.0 | 1.7 | 0.00 | 0.00 | 0.00 | 44 | 1010.5 |
| 20260510003013 | 86 | 162 | 0.0 | 1.7 | 0.00 | 0.00 | 0.00 | 45 | 1010.4 |
| 20260510002508 | 86 | 162 | 0.0 | 1.7 | 0.00 | 0.00 | 0.00 | 45 | 1010.4 |
| 20260510002009 | 87 | 146 | 0.0 | 0.9 | 0.00 | 0.00 | 0.00 | 44 | 1010.5 |
| 20260510001514 | 87 | 152 | 0.0 | 1.7 | 0.00 | 0.00 | 0.00 | 44 | 1010.4 |
| 20260510001006 | 87 | 152 | 0.0 | 2.6 | 0.00 | 0.00 | 0.00 | 44 | 1010.3 |
| 20260510000506 | 88 | 118 | 0.0 | 2.6 | 0.00 | 0.00 | 0.00 | 44 | 1010.3 |
| 20260510000016 | 88 | 167 | 0.9 | 2.6 | 0.00 | 0.00 | 0.00 | 43 | 1010.3 |
| 20260509235502 | 89 | 161 | 0.9 | 3.5 | 0.00 | 0.00 | 0.00 | 42 | 1010.3 |
| 20260509235005 | 89 | 127 | 0.9 | 3.5 | 0.00 | 0.00 | 0.00 | 43 | 1010.2 |
| 20260509234522 | 89 | 127 | 0.9 | 3.5 | 0.00 | 0.00 | 0.00 | 42 | 1010.3 |
| 20260509234007 | 89 | 141 | 0.0 | 3.5 | 0.00 | 0.00 | 0.00 | 42 | 1010.2 |
| 20260509233505 | 90 | 140 | 0.9 | 2.6 | 0.00 | 0.00 | 0.00 | 42 | 1010.2 |
| 20260509233013 | 90 | 123 | 0.9 | 2.6 | 0.00 | 0.00 | 0.00 | 42 | 1010.2 |
| 20260509232507 | 91 | 181 | 1.7 | 2.6 | 0.00 | 0.00 | 0.00 | 40 | 1010.2 |
| 20260509232007 | 91 | 143 | 0.0 | 2.6 | 0.00 | 0.00 | 0.00 | 41 | 1010.2 |
| 20260509231514 | 91 | 117 | 0.0 | 3.5 | 0.00 | 0.00 | 0.00 | 40 | 1010.2 |
| 20260509231007 | 91 | 214 | 1.7 | 3.5 | 0.00 | 0.00 | 0.00 | 40 | 1010.2 |
| 20260509230508 | 91 | 150 | 0.9 | 2.6 | 0.00 | 0.00 | 0.00 | 40 | 1010.1 |
| 20260509230016 | 91 | 224 | 0.9 | 4.3 | 0.00 | 0.00 | 0.00 | 41 | 1010.2 |
| 20260509225504 | 91 | 134 | 0.9 | 4.3 | 0.00 | 0.00 | 0.00 | 40 | 1010.2 |
| 20260509225005 | 91 | 120 | 0.0 | 2.6 | 0.00 | 0.00 | 0.00 | 40 | 1010.1 |
| 20260509224516 | 91 | 323 | 0.9 | 2.6 | 0.00 | 0.00 | 0.00 | 38 | 1010.2 |
| 20260509224002 | 91 | 135 | 0.0 | 2.6 | 0.00 | 0.00 | 0.00 | 38 | 1010.2 |
| 20260509223507 | 90 | 18 | 0.0 | 2.6 | 0.00 | 0.00 | 0.00 | 41 | 1010.2 |
| 20260509223016 | 90 | 308 | 0.9 | 2.6 | 0.00 | 0.00 | 0.00 | 39 | 1010.3 |
| 20260509222506 | 91 | 313 | 0.9 | 2.6 | 0.00 | 0.00 | 0.00 | 39 | 1010.3 |
| 20260509222008 | 92 | 272 | 0.9 | 1.7 | 0.00 | 0.00 | 0.00 | 38 | 1010.3 |
| 20260509221515 | 91 | 321 | 0.0 | 3.5 | 0.00 | 0.00 | 0.00 | 43 | 1010.3 |
| 20260509221007 | 91 | 66 | 0.9 | 3.5 | 0.00 | 0.00 | 0.00 | 43 | 1010.3 |
| 20260509220508 | 90 | 103 | 0.0 | 3.5 | 0.00 | 0.00 | 0.00 | 41 | 1010.3 |
| 20260509220016 | 90 | 137 | 1.7 | 3.5 | 0.00 | 0.00 | 0.00 | 41 | 1010.4 |
| 20260509215508 | 91 | 300 | 0.0 | 3.5 | 0.00 | 0.00 | 0.00 | 42 | 1010.3 |
| 20260509215005 | 90 | 274 | 0.0 | 6.1 | 0.00 | 0.00 | 0.00 | 41 | 1010.4 |
| 20260509214520 | 90 | 179 | 2.6 | 6.1 | 0.00 | 0.00 | 0.00 | 45 | 1010.4 |
| 20260509214010 | 90 | 140 | 0.9 | 5.2 | 0.00 | 0.00 | 0.00 | 47 | 1010.4 |
| 20260509213506 | 90 | 173 | 1.7 | 4.3 | 0.00 | 0.00 | 0.00 | 45 | 1010.5 |
| 20260509213018 | 90 | 260 | 2.6 | 4.3 | 0.00 | 0.00 | 0.00 | 45 | 1010.5 |
| 20260509212502 | 89 | 316 | 1.7 | 3.5 | 0.00 | 0.00 | 0.00 | 43 | 1010.6 |
| 20260509212007 | 90 | 343 | 0.9 | 3.5 | 0.00 | 0.00 | 0.00 | 44 | 1010.7 |
| 20260509211513 | 89 | 149 | 0.9 | 4.3 | 0.00 | 0.00 | 0.00 | 47 | 1010.7 |
| 20260509211010 | 89 | 227 | 1.7 | 5.2 | 0.00 | 0.00 | 0.00 | 49 | 1010.8 |
| 20260509210507 | 89 | 291 | 0.9 | 5.2 | 0.00 | 0.00 | 0.00 | 50 | 1010.8 |
| 20260509210024 | 89 | 229 | 0.9 | 4.3 | 0.00 | 0.00 | 0.00 | 48 | 1010.9 |
| 20260509205506 | 89 | 324 | 0.9 | 4.3 | 0.00 | 0.00 | 0.00 | 50 | 1011.0 |
| 20260509205007 | 89 | 322 | 0.9 | 4.3 | 0.00 | 0.00 | 0.00 | 48 | 1011.1 |
| 20260509204518 | 88 | 299 | 1.7 | 4.3 | 0.00 | 0.00 | 0.00 | 50 | 1011.2 |
| 20260509204008 | 88 | 316 | 0.9 | 7.0 | 0.00 | 0.00 | 0.00 | 52 | 1011.2 |
| 20260509203507 | 88 | 289 | 0.9 | 7.0 | 0.00 | 0.00 | 0.00 | 51 | 1011.2 |
| 20260509203021 | 88 | 293 | 1.7 | 6.1 | 0.00 | 0.00 | 0.00 | 52 | 1011.2 |
| 20260509202506 | 87 | 281 | 0.9 | 4.3 | 0.00 | 0.00 | 0.00 | 51 | 1011.3 |
| 20260509202008 | 88 | 108 | 0.9 | 3.5 | 0.00 | 0.00 | 0.00 | 50 | 1011.3 |
| 20260509201518 | 87 | 340 | 1.7 | 5.2 | 0.00 | 0.00 | 0.00 | 49 | 1011.6 |
| 20260509201006 | 87 | 218 | 1.7 | 5.2 | 0.00 | 0.00 | 0.00 | 51 | 1011.6 |
| 20260509200508 | 86 | 203 | 0.9 | 2.6 | 0.00 | 0.00 | 0.00 | 54 | 1011.8 |
| 20260509200016 | 86 | 203 | 0.9 | 3.5 | 0.00 | 0.00 | 0.00 | 54 | 1011.9 |
| 20260509195511 | 86 | 169 | 0.0 | 3.5 | 0.00 | 0.00 | 0.00 | 54 | 1011.9 |
| 20260509195007 | 86 | 276 | 0.9 | 4.3 | 0.00 | 0.00 | 0.00 | 52 | 1012.0 |
| 20260509194524 | 87 | 343 | 0.9 | 4.3 | 0.00 | 0.00 | 0.00 | 53 | 1012.1 |
| 20260509194008 | 88 | 83 | 0.9 | 4.3 | 0.00 | 0.00 | 0.00 | 49 | 1012.2 |
| 20260509193514 | 88 | 140 | 0.9 | 3.5 | 0.00 | 0.00 | 0.00 | 53 | 1012.3 |
| 20260509193022 | 87 | 60 | 0.9 | 5.2 | 0.00 | 0.00 | 0.00 | 55 | 1012.4 |
| 20260509192510 | 87 | 200 | 1.7 | 5.2 | 0.00 | 0.00 | 0.00 | 52 | 1012.4 |
| 20260509192007 | 86 | 234 | 0.9 | 3.5 | 0.00 | 0.00 | 0.00 | 55 | 1012.4 |
| 20260509191520 | 86 | 160 | 0.9 | 3.5 | 0.00 | 0.00 | 0.00 | 55 | 1012.4 |
| 20260509191007 | 87 | 297 | 0.9 | 5.2 | 0.00 | 0.00 | 0.00 | 54 | 1012.4 |
| 20260509190508 | 87 | 295 | 0.9 | 5.2 | 0.00 | 0.00 | 0.00 | 53 | 1012.4 |
| 20260509190020 | 87 | 194 | 1.7 | 5.2 | 0.00 | 0.00 | 0.00 | 56 | 1012.5 |
| 20260509185506 | 86 | 26 | 1.7 | 5.2 | 0.00 | 0.00 | 0.00 | 55 | 1012.6 |
| 20260509185007 | 86 | 42 | 1.7 | 5.2 | 0.00 | 0.00 | 0.00 | 58 | 1012.6 |
| 20260509184532 | 86 | 117 | 1.7 | 5.2 | 0.00 | 0.00 | 0.00 | 59 | 1012.6 |
| 20260509184009 | 87 | 255 | 1.7 | 3.5 | 0.00 | 0.00 | 0.00 | 57 | 1012.8 |
| 20260509183510 | 86 | 219 | 0.9 | 4.3 | 0.00 | 0.00 | 0.00 | 57 | 1012.7 |
| 20260509183024 | 86 | 219 | 1.7 | 6.1 | 0.00 | 0.00 | 0.00 | 58 | 1012.8 |
| 20260509182505 | 85 | 263 | 1.7 | 6.1 | 0.00 | 0.00 | 0.00 | 62 | 1013.0 |
| 20260509182008 | 85 | 153 | 1.7 | 6.1 | 0.00 | 0.00 | 0.00 | 60 | 1013.0 |
| 20260509181521 | 85 | 277 | 1.7 | 6.1 | 0.00 | 0.00 | 0.00 | 59 | 1013.1 |
| 20260509181011 | 85 | 185 | 1.7 | 4.3 | 0.00 | 0.00 | 0.00 | 60 | 1013.1 |
| 20260509180506 | 84 | 304 | 0.9 | 3.5 | 0.00 | 0.00 | 0.00 | 63 | 1013.2 |
| 20260509180024 | 83 | 314 | 1.7 | 4.3 | 0.00 | 0.00 | 0.00 | 64 | 1013.3 |
| 20260509175510 | 83 | 252 | 0.9 | 4.3 | 0.00 | 0.00 | 0.00 | 64 | 1013.4 |
| 20260509175008 | 84 | 1 | 1.7 | 3.5 | 0.00 | 0.00 | 0.00 | 63 | 1013.4 |
| 20260509174520 | 82 | 202 | 0.0 | 4.3 | 0.00 | 0.00 | 0.00 | 67 | 1013.4 |
| 20260509174007 | 81 | 326 | 0.0 | 4.3 | 0.00 | 0.00 | 0.00 | 67 | 1013.5 |
| 20260509173509 | 82 | 88 | 0.9 | 4.3 | 0.00 | 0.00 | 0.00 | 66 | 1013.5 |
| 20260509173018 | 82 | 219 | 0.9 | 5.2 | 0.00 | 0.00 | 0.00 | 67 | 1013.5 |
| 20260509172506 | 83 | 270 | 0.9 | 5.2 | 0.00 | 0.00 | 0.00 | 66 | 1013.6 |
| 20260509172003 | 83 | 226 | 1.7 | 5.2 | 0.00 | 0.00 | 0.00 | 66 | 1013.6 |
| 20260509171502 | 83 | 311 | 0.9 | 4.3 | 0.00 | 0.00 | 0.00 | 68 | 1013.6 |
| 20260509171001 | 81 | 146 | 1.7 | 4.3 | 0.00 | 0.00 | 0.00 | 70 | 1013.7 |
| 20260509170502 | 80 | 191 | 0.9 | 4.3 | 0.00 | 0.00 | 0.00 | 73 | 1013.7 |
| 20260509170008 | 79 | 108 | 0.0 | 3.5 | 0.00 | 0.00 | 0.00 | 74 | 1013.8 |
| 20260509165502 | 79 | 252 | 0.9 | 5.2 | 0.00 | 0.00 | 0.00 | 73 | 1013.8 |
| 20260509165007 | 79 | 278 | 0.0 | 5.2 | 0.00 | 0.00 | 0.00 | 73 | 1013.9 |
| 20260509164511 | 80 | 245 | 0.9 | 5.2 | 0.00 | 0.00 | 0.00 | 72 | 1013.9 |
| 20260509164004 | 81 | 165 | 1.7 | 5.2 | 0.00 | 0.00 | 0.00 | 70 | 1013.9 |
| 20260509163505 | 80 | 133 | 1.7 | 5.2 | 0.00 | 0.00 | 0.00 | 73 | 1013.7 |
| 20260509163023 | 80 | 200 | 1.7 | 4.3 | 0.00 | 0.00 | 0.00 | 73 | 1013.8 |
| 20260509162508 | 78 | 26 | 1.7 | 4.3 | 0.00 | 0.00 | 0.00 | 76 | 1013.9 |
| 20260509162007 | 78 | 119 | 0.0 | 2.6 | 0.00 | 0.00 | 0.00 | 79 | 1013.9 |
| 20260509161516 | 77 | 180 | 0.9 | 3.5 | 0.00 | 0.00 | 0.00 | 80 | 1013.8 |
| 20260509161008 | 76 | 281 | 0.0 | 3.5 | 0.00 | 0.00 | 0.00 | 80 | 1013.9 |
| 20260509160503 | 76 | 148 | 0.9 | 4.3 | 0.00 | 0.00 | 0.00 | 80 | 1014.2 |
| 20260509160004 | 76 | 133 | 0.9 | 4.3 | 0.00 | 0.00 | 0.00 | 81 | 1014.0 |
| 20260509155502 | 76 | 89 | 0.9 | 1.7 | 0.00 | 0.00 | 0.00 | 82 | 1014.0 |
| 20260509155002 | 76 | 124 | 0.9 | 3.5 | 0.00 | 0.00 | 0.00 | 81 | 1014.2 |
| 20260509154508 | 75 | 150 | 0.0 | 3.5 | 0.00 | 0.00 | 0.00 | 81 | 1014.2 |
| 20260509154008 | 75 | 117 | 1.7 | 3.5 | 0.00 | 0.00 | 0.00 | 82 | 1014.1 |
| 20260509153503 | 75 | 138 | 1.7 | 3.5 | 0.00 | 0.00 | 0.00 | 82 | 1014.0 |
| 20260509153015 | 74 | 154 | 0.9 | 6.1 | 0.00 | 0.00 | 0.00 | 83 | 1013.9 |
| 20260509152504 | 74 | 32 | 0.9 | 6.1 | 0.00 | 0.00 | 0.00 | 84 | 1013.8 |
| 20260509152009 | 73 | 222 | 0.9 | 6.1 | 0.00 | 0.00 | 0.00 | 85 | 1013.6 |
| 20260509151516 | 73 | 116 | 1.7 | 7.0 | 0.00 | 0.00 | 0.00 | 86 | 1013.6 |
| 20260509151005 | 73 | 244 | 1.7 | 7.0 | 0.00 | 0.00 | 0.00 | 85 | 1013.5 |
| 20260509150508 | 73 | 339 | 0.9 | 4.3 | 0.00 | 0.00 | 0.00 | 86 | 1013.4 |
| 20260509150022 | 73 | 167 | 1.7 | 4.3 | 0.00 | 0.00 | 0.00 | 86 | 1013.6 |
| 20260509145507 | 73 | 160 | 1.7 | 5.2 | 0.00 | 0.00 | 0.00 | 85 | 1013.6 |
| 20260509145002 | 72 | 152 | 0.9 | 5.2 | 0.00 | 0.00 | 0.00 | 87 | 1013.4 |
| 20260509144506 | 72 | 143 | 2.6 | 5.2 | 0.00 | 0.00 | 0.00 | 86 | 1013.2 |
| 20260509144002 | 72 | 159 | 0.9 | 4.3 | 0.00 | 0.00 | 0.00 | 89 | 1013.2 |
| 20260509143503 | 71 | 195 | 0.9 | 4.3 | 0.00 | 0.00 | 0.00 | 90 | 1013.2 |
| 20260509143007 | 70 | 177 | 0.0 | 3.5 | 0.00 | 0.00 | 0.00 | 92 | 1013.4 |
| 20260509142503 | 69 | 298 | 0.9 | 7.0 | 0.00 | 0.00 | 0.00 | 93 | 1013.6 |
| 20260509142009 | 69 | 229 | 1.7 | 7.0 | 0.00 | 0.00 | 0.00 | 94 | 1013.1 |
| 20260509141530 | 68 | 136 | 2.6 | 4.3 | 0.00 | 0.00 | 0.00 | 95 | 1013.0 |
| 20260509141008 | 68 | 133 | 0.9 | 2.6 | 0.00 | 0.00 | 0.00 | 95 | 1013.5 |
| 20260509140508 | 68 | 322 | 0.0 | 3.5 | 0.00 | 0.00 | 0.00 | 95 | 1013.7 |
| 20260509140017 | 68 | 21 | 0.9 | 3.5 | 0.00 | 0.00 | 0.00 | 95 | 1013.6 |
| 20260509135507 | 68 | 304 | 0.9 | 5.2 | 0.00 | 0.00 | 0.00 | 95 | 1013.7 |
| 20260509135011 | 67 | 338 | 2.6 | 5.2 | 0.00 | 0.00 | 0.00 | 95 | 1013.8 |
| 20260509134515 | 67 | 357 | 1.7 | 2.6 | 0.00 | 0.00 | 0.00 | 95 | 1013.8 |
| 20260509134006 | 67 | 322 | 0.9 | 1.7 | 0.00 | 0.00 | 0.00 | 96 | 1013.8 |
| 20260509133503 | 67 | 11 | 0.9 | 1.7 | 0.00 | 0.00 | 0.00 | 96 | 1013.8 |
| 20260509133006 | 67 | 23 | 0.0 | 1.7 | 0.00 | 0.00 | 0.00 | 96 | 1013.6 |
| 20260509132505 | 67 | 23 | 0.0 | 4.3 | 0.00 | 0.00 | 0.00 | 96 | 1013.5 |
| 20260509132007 | 67 | 34 | 1.7 | 4.3 | 0.00 | 0.00 | 0.00 | 96 | 1013.7 |
| 20260509131510 | 67 | 96 | 0.0 | 1.7 | 0.00 | 0.00 | 0.00 | 96 | 1013.5 |
| 20260509131010 | 67 | 113 | 0.9 | 1.7 | 0.00 | 0.00 | 0.00 | 96 | 1013.4 |
| 20260509130509 | 67 | 138 | 0.0 | 3.5 | 0.00 | 0.00 | 0.00 | 96 | 1013.4 |
| 20260509130016 | 67 | 80 | 0.9 | 4.3 | 0.00 | 0.00 | 0.00 | 96 | 1013.4 |
| 20260509125509 | 67 | 32 | 1.7 | 5.2 | 0.00 | 0.00 | 0.00 | 96 | 1013.4 |
| 20260509125012 | 67 | 342 | 0.9 | 5.2 | 0.00 | 0.00 | 0.00 | 96 | 1013.3 |
| 20260509124526 | 67 | 66 | 3.5 | 5.2 | 0.00 | 0.00 | 0.00 | 96 | 1013.2 |
| 20260509124007 | 67 | 16 | 1.7 | 3.5 | 0.00 | 0.00 | 0.00 | 96 | 1013.2 |
| 20260509123506 | 67 | 352 | 0.9 | 4.3 | 0.00 | 0.00 | 0.00 | 96 | 1013.3 |
| 20260509123021 | 67 | 20 | 1.7 | 4.3 | 0.00 | 0.00 | 0.00 | 96 | 1013.3 |
| 20260509122508 | 67 | 2 | 2.6 | 4.3 | 0.00 | 0.00 | 0.00 | 96 | 1013.3 |
| 20260509122003 | 67 | 18 | 1.7 | 4.3 | 0.00 | 0.00 | 0.00 | 96 | 1013.4 |
| 20260509121509 | 67 | 18 | 2.6 | 4.3 | 0.00 | 0.00 | 0.00 | 96 | 1013.7 |
| 20260509121003 | 67 | 357 | 1.7 | 3.5 | 0.00 | 0.00 | 0.00 | 96 | 1013.7 |
| 20260509120504 | 67 | 109 | 0.0 | 6.1 | 0.00 | 0.00 | 0.00 | 96 | 1013.4 |
| 20260509120013 | 67 | 43 | 0.0 | 7.0 | 0.00 | 0.00 | 0.00 | 96 | 1013.3 |
| 20260509115506 | 67 | 351 | 2.6 | 10.4 | 0.00 | 0.00 | 0.00 | 96 | 1013.4 |
| 20260509115011 | 68 | 7 | 6.1 | 10.4 | 0.00 | 0.00 | 0.00 | 96 | 1013.4 |
| 20260509114517 | 68 | 353 | 5.2 | 12.2 | 0.00 | 0.00 | 0.00 | 96 | 1013.4 |
| 20260509114006 | 68 | 349 | 4.3 | 12.2 | 0.00 | 0.00 | 0.00 | 96 | 1013.3 |
| 20260509113509 | 68 | 25 | 4.3 | 12.2 | 0.00 | 0.00 | 0.00 | 96 | 1013.2 |
| 20260509113024 | 68 | 32 | 6.1 | 10.4 | 0.00 | 0.00 | 0.00 | 96 | 1013.3 |
| 20260509112507 | 68 | 8 | 4.3 | 7.8 | 0.00 | 0.00 | 0.00 | 96 | 1013.5 |
| 20260509112008 | 68 | 340 | 3.5 | 7.8 | 0.00 | 0.00 | 0.00 | 96 | 1013.7 |
| 20260509111534 | 68 | 357 | 2.6 | 7.8 | 0.00 | 0.00 | 0.00 | 96 | 1013.8 |
| 20260509111014 | 68 | 27 | 4.3 | 10.4 | 0.00 | 0.00 | 0.00 | 96 | 1013.8 |
| 20260509110502 | 68 | 25 | 6.1 | 10.4 | 0.00 | 0.00 | 0.00 | 96 | 1013.8 |
| 20260509110011 | 68 | 354 | 2.6 | 7.0 | 0.00 | 0.00 | 0.00 | 96 | 1013.7 |
| 20260509105503 | 68 | 23 | 2.6 | 4.3 | 0.00 | 0.00 | 0.00 | 96 | 1013.2 |